Content
SEND FEEDBACK

Daily
Averages
Monthly
Summary
The Bahamas

NASSAU, THE BAHAMAS


Home > Caribbean > The Bahamas
Elevation: 23 feet     Latitude: 25 03N     Longitude: 077 28W

WEATHER
 
SELECT A DAY
Number of Records: 161,488;   Date Range: 6/30/96 - 10/1/14
 
SHARE

PRINT THIS DATA

[ ← Previous Day ]
WEATHER ALMANAC - FEBRUARY 1, 2013
[ Next Day → ]
[ °C ]   °F
Weather ElementAverageHighLow
Temperature69.9 °F73.4 °F (1:00 am)68 °F (8:00 am)
Dewpoint62.2 °F69 °F (1:00 am)55.4 °F (11:00 pm)
Humidity75.6 %88 % (5:00 am)58 % (10:00 pm)
Barometer30.17 in30.22 in (10:00 pm)30.11 in (3:00 am)
Wind Speed11.1 mph13.8 mph (6:00 am)
Weather ElementAverage
Visibility6.6 mi
Wind DirectionE (88.1 °)

Weather ElementTotal
Precipitation---
Cooling Degree Days5.7 (Base 65)
Growing Degree Days20.7 (Base 50)
Averaged from 31 records on February 1, 2013
WEATHER CONDITIONS BREAKOUT
WIND DIRECTION BREAKOUT
WEATHER BY HOUR - FEBRUARY 1, 2013
[ °C ]   °F
Local TimeTemperatureDewpointHumidityBarometerVisibilityWind DirectionWind SpeedGust SpeedPrecipitationEventsConditions
1:00 AM73.0 °F69.0 °F82 %30.12 in8.0 miNorth6.9 mphMostly Cloudy
1:00 AM73.4 °F68.0 °F83 %30.12 in6.2 miNorth (360°)6.9 mphScattered Clouds
3:00 AM71.6 °F66.2 °F83 %30.11 in6.2 miNorth (350°)6.9 mphMostly Cloudy
4:00 AM71.0 °F67.0 °F83 %30.12 in8.0 miNNE (20°)11.5 mphMostly Cloudy
4:00 AM71.6 °F66.2 °F83 %30.11 in6.2 miNNE (20°)11.5 mphMostly Cloudy
5:00 AM69.8 °F66.2 °F88 %30.11 in6.2 miNorth (10°)10.4 mphMostly Cloudy
6:00 AM69.8 °F64.4 °F83 %30.12 in6.2 miNNE (20°)13.8 mphMostly Cloudy
7:00 AM71.6 °F66.2 °F83 %30.14 in6.2 miNNE (20°)9.2 mphOvercast
7:00 AM71.0 °F66.0 °F80 %30.14 in8.0 miNNE (20°)9.2 mphPartly Cloudy
8:00 AM68.0 °F64.4 °F88 %30.15 in3.7 miNE (50°)11.5 mphRainLight Rain Showers
8:35 AM68.0 °F64.4 °F88 %30.17 in5.6 miNE (50°)10.4 mphRainLight Rain
9:00 AM68.0 °F62.6 °F83 %30.18 in5.6 miNW (310°)11.5 mphOvercast
10:00 AM70.0 °F63.0 °F72 %30.20 in9.0 miNorth11.5 mphPartly Cloudy
10:00 AM69.8 °F62.6 °F78 %30.20 in6.2 miNorth (360°)11.5 mphOvercast
11:00 AM69.8 °F62.6 °F78 %30.21 in6.2 miNorth (360°)10.4 mphRainLight Rain Showers
12:00 PM68.0 °F60.8 °F78 %30.19 in6.2 miNNE (20°)10.4 mphRainLight Rain
1:00 PM69.0 °F62.0 °F74 %30.19 in8.0 miNorth11.5 mphRainLight Rain
1:00 PM68.0 °F62.6 °F83 %30.19 in6.2 miNorth (360°)11.5 mphRainLight Rain
2:00 PM69.8 °F60.8 °F73 %30.17 in6.2 miNNE (30°)11.5 mphOvercast
3:00 PM69.8 °F59.0 °F68 %30.18 in6.2 miNE (40°)11.5 mphMostly Cloudy
4:00 PM71.0 °F60.0 °F60 %30.17 in8.0 miNNE (30°)11.5 mph
4:00 PM69.8 °F60.8 °F73 %30.17 in6.2 miNNE (30°)11.5 mphMostly Cloudy
5:00 PM69.8 °F57.2 °F64 %30.18 in6.2 miNNE (30°)11.5 mphMostly Cloudy
6:00 PM69.8 °F57.2 °F64 %30.19 in6.2 miNNE (30°)11.5 mphMostly Cloudy
7:00 PM70.0 °F67.0 °F87 %30.20 in8.0 miNNE (30°)13.8 mphPartly Cloudy
7:00 PM69.8 °F59.0 °F68 %30.20 in6.2 miNNE (30°)13.8 mphMostly Cloudy
8:00 PM69.8 °F57.2 °F64 %30.21 in6.2 miNNE (30°)13.8 mphMostly Cloudy
9:00 PM69.8 °F57.2 °F64 %30.21 in6.2 miNNE (30°)11.5 mphScattered Clouds
10:00 PM69.0 °F57.0 °F58 %30.22 in9.0 miNNE (30°)11.5 mphPartly Cloudy
10:00 PM68.0 °F57.2 °F68 %30.22 in6.2 miNNE (30°)11.5 mphPartly Cloudy
11:00 PM68.0 °F55.4 °F64 %30.20 in6.2 miNNE (30°)11.5 mphScattered Clouds
Hourly data recorded from MYNN, located miles away from Nassau, The Bahamas







STORIES FROM OUR PARTNERS